Simultaneous Nadir Overpasses (SNOs) Predictions

Prediction of SNOs between GOES-15 and METOP-A Satellite Orbit:

Table of predicted SNOs for the next 14.0 days since TLE Epoch: 2/18/2022
Index Date Time (GOES-15) GOES-15 Lat,Lon METOP-A Lat,Lon Distance(km) Time Diff (sec)
1 02/20/2022 16:25:30 0.03,-127.85 -0.78,-124.24 411.85 80
2 02/21/2022 04:39:35 -0.03,-127.80 -0.13,-128.27 53.87 80
3 02/21/2022 16:55:41 0.03,-127.82 0.97,-132.15 492.47 80
4 02/23/2022 16:27:18 0.03,-127.75 -0.67,-124.53 365.74 80
5 02/24/2022 04:41:12 -0.03,-127.69 -0.23,-128.52 94.96 80
6 02/26/2022 16:29:07 0.03,-127.62 -0.61,-124.83 318.12 80
7 02/27/2022 04:42:49 -0.03,-127.56 -0.27,-128.77 137.29 80
8 03/01/2022 16:30:53 0.04,-127.49 -0.49,-125.12 270.43 80
9 03/02/2022 04:44:23 -0.04,-127.43 -0.39,-129.00 179.53 80
10 03/04/2022 16:32:39 0.04,-127.36 -0.36,-125.40 223.35 80
